Location: Kumla
(59.1265°N, 15.1401°E)
Time: 22:40:08
(UTC+01:00)

Vanguard 1 - Pass Details

Date: 06 December 2023
Orbit: 653 x 3825 km, 34.3° (Epoch: 04 March)

Event Time Altitude Azimuth Distance (km) Brightness Sun altitude
Rises 18:13:59 0° 223° (SW) 5,954 14.8 -22.2°
Reaches altitude 10° 18:18:10 10° 212° (SSW) 5,371 14.3 -22.7°
Maximum altitude 18:31:45 30° 161° (SSE) 4,945 13.4 -24.4°
Enters shadow 18:43:05 19° 124° (ESE) 6,072 13.6 -25.9°
